JAL9217 RJOK-RJSS

Flight info

Callsign JAL9217
Flight time N/A
Altitude 37000
Route KEC Y12 NAKTU Y88 TENRU Y15 OWLET
Aircraft B738/M-SDE2E3FGHIRWXY/LB1

Departure

Time 2026-04-30 13:12
Airport Kochi Ryoma Airport (RJOK)

Arrival

Time N/A
Airport Sendai Airport (RJSS)
Time Latitude Longitude Altitude Speed Heading
2026-04-30 12:55 33.54747 133.67300 27 ft 0 kts 40°
2026-04-30 13:03 33.54737 133.67289 27 ft 4 kts 40°
2026-04-30 13:03 33.54716 133.67268 32 ft 4 kts 40°
2026-04-30 13:03 33.54696 133.67248 31 ft 2 kts 40°
2026-04-30 13:03 33.54681 133.67228 31 ft 4 kts 73°
2026-04-30 13:04 33.54684 133.67204 30 ft 4 kts 139°
2026-04-30 13:04 33.54703 133.67185 29 ft 2 kts 130°
2026-04-30 13:04 33.54704 133.67184 29 ft 1 kts 130°
2026-04-30 13:07 33.54700 133.67191 30 ft 4 kts 130°
2026-04-30 13:08 33.54646 133.67208 28 ft 13 kts 165°
2026-04-30 13:08 33.54572 133.67291 28 ft 15 kts 131°
2026-04-30 13:08 33.54527 133.67352 28 ft 15 kts 131°
2026-04-30 13:08 33.54441 133.67472 27 ft 14 kts 130°
2026-04-30 13:09 33.54381 133.67556 29 ft 13 kts 130°
2026-04-30 13:09 33.54323 133.67638 26 ft 13 kts 130°
2026-04-30 13:09 33.54265 133.67720 26 ft 14 kts 130°
2026-04-30 13:09 33.54197 133.67814 23 ft 16 kts 131°
2026-04-30 13:10 33.54121 133.67920 22 ft 16 kts 130°
2026-04-30 13:10 33.54076 133.67982 23 ft 13 kts 131°
2026-04-30 13:10 33.54007 133.68044 24 ft 13 kts 170°
2026-04-30 13:10 33.53915 133.67969 22 ft 12 kts 238°
2026-04-30 13:11 33.53914 133.67905 23 ft 12 kts 298°
2026-04-30 13:11 33.53985 133.67807 23 ft 12 kts 310°
2026-04-30 13:11 33.54129 133.67608 25 ft 68 kts 311°
2026-04-30 13:11 33.54605 133.66941 22 ft 141 kts 310°
2026-04-30 13:12 33.55070 133.66292 263 ft 159 kts 313°
2026-04-30 13:12 33.55858 133.65480 1182 ft 153 kts 334°
2026-04-30 13:12 33.56987 133.65203 1584 ft 175 kts 21°
2026-04-30 13:13 33.58422 133.67641 3399 ft 165 kts 73°
2026-04-30 13:13 33.58719 133.68562 3608 ft 186 kts 73°
2026-04-30 13:13 33.59892 133.72492 4213 ft 239 kts 87°
2026-04-30 13:14 33.59688 133.74448 5030 ft 239 kts 111°
2026-04-30 13:14 33.59170 133.75629 5462 ft 246 kts 126°
2026-04-30 13:14 33.56914 133.78833 6919 ft 258 kts 133°
2026-04-30 13:15 33.55711 133.80478 7572 ft 266 kts 134°
2026-04-30 13:15 33.53214 133.83910 8951 ft 280 kts 135°
2026-04-30 13:15 33.52037 133.85575 9583 ft 288 kts 134°
2026-04-30 13:16 33.50799 133.87461 10233 ft 299 kts 126°
2026-04-30 13:16 33.50128 133.89951 10474 ft 336 kts 99°
2026-04-30 13:16 33.50036 133.92865 10690 ft 363 kts 94°
2026-04-30 13:17 33.50070 133.99238 11234 ft 396 kts 94°
2026-04-30 13:17 33.50078 134.02543 11885 ft 398 kts 94°
2026-04-30 13:17 33.50063 134.09221 13200 ft 411 kts 95°
2026-04-30 13:18 33.49992 134.12671 13843 ft 414 kts 95°
2026-04-30 13:18 33.49808 134.19646 14790 ft 424 kts 96°
2026-04-30 13:18 33.49710 134.23194 15249 ft 428 kts 96°
2026-04-30 13:19 33.49615 134.26790 15622 ft 435 kts 96°
2026-04-30 13:19 33.49517 134.30434 16045 ft 441 kts 96°
2026-04-30 13:19 33.49419 134.34126 16500 ft 445 kts 96°
2026-04-30 13:19 33.49322 134.37799 16957 ft 449 kts 96°
2026-04-30 13:20 33.49223 134.41553 17393 ft 454 kts 96°
2026-04-30 13:20 33.49125 134.45323 18135 ft 449 kts 97°
2026-04-30 13:20 33.49028 134.49046 18790 ft 447 kts 97°
2026-04-30 13:20 33.48929 134.52779 19274 ft 450 kts 97°
2026-04-30 13:21 33.48824 134.56535 19690 ft 453 kts 97°
2026-04-30 13:21 33.48717 134.60321 20121 ft 456 kts 97°
2026-04-30 13:21 33.48609 134.64120 20599 ft 456 kts 97°
2026-04-30 13:22 33.48392 134.71683 21549 ft 460 kts 97°
2026-04-30 13:22 33.48279 134.75519 21939 ft 463 kts 97°
2026-04-30 13:22 33.48048 134.83271 22738 ft 468 kts 97°
2026-04-30 13:23 33.47931 134.87174 23143 ft 470 kts 97°
2026-04-30 13:23 33.47692 134.95009 23959 ft 472 kts 98°
2026-04-30 13:24 33.47446 135.02870 24468 ft 479 kts 98°
2026-04-30 13:24 33.47190 135.10880 25023 ft 484 kts 98°
2026-04-30 13:25 33.46939 135.18978 25614 ft 490 kts 95°
2026-04-30 13:25 33.48375 135.27092 26268 ft 511 kts 69°
2026-04-30 13:26 33.54409 135.37682 27096 ft 521 kts 52°
2026-04-30 13:26 33.58897 135.44534 27675 ft 524 kts 52°
2026-04-30 13:27 33.63365 135.51491 28264 ft 528 kts 53°
2026-04-30 13:28 33.70005 135.61991 29745 ft 523 kts 52°
2026-04-30 13:28 33.74371 135.68920 30354 ft 526 kts 52°
2026-04-30 13:28 33.76582 135.72432 30683 ft 526 kts 52°
2026-04-30 13:29 33.81003 135.79457 31215 ft 529 kts 52°
2026-04-30 13:29 33.85447 135.86531 31748 ft 532 kts 52°
2026-04-30 13:30 33.92102 135.97152 32597 ft 533 kts 52°
2026-04-30 13:31 33.96570 136.04300 33089 ft 535 kts 52°
2026-04-30 13:31 34.03274 136.15053 33939 ft 535 kts 51°
2026-04-30 13:32 34.07714 136.22193 34268 ft 537 kts 51°
2026-04-30 13:32 34.12184 136.29397 34767 ft 536 kts 52°
2026-04-30 13:33 34.16644 136.36597 35182 ft 536 kts 52°
2026-04-30 13:33 34.21106 136.43815 35576 ft 536 kts 52°